﻿測定場所 (Monitoring sites),日付 (Measurement date),時間 (Measurement time),線量率 最大値 (max) μGy/h,線量率 最小値 (min) μGy/h,線量率 平均値 (average) μGy/h,
足立 (Adachi),2024-02-25,23:01～24:00,0.0381,0.0326,0.0355,
足立 (Adachi),2024-02-25,22:01～23:00,0.0363,0.0321,0.0339,
足立 (Adachi),2024-02-25,21:01～22:00,0.0373,0.0329,0.0355,
足立 (Adachi),2024-02-25,20:01～21:00,0.0401,0.0345,0.0371,
足立 (Adachi),2024-02-25,19:01～20:00,0.0402,0.0365,0.0379,
足立 (Adachi),2024-02-25,18:01～19:00,0.0393,0.0311,0.0356,
足立 (Adachi),2024-02-25,17:01～18:00,0.0370,0.0312,0.0337,
足立 (Adachi),2024-02-25,16:01～17:00,0.0374,0.0324,0.0353,
足立 (Adachi),2024-02-25,15:01～16:00,0.0388,0.0340,0.0362,
足立 (Adachi),2024-02-25,14:01～15:00,0.0395,0.0339,0.0367,
足立 (Adachi),2024-02-25,13:01～14:00,0.0388,0.0332,0.0366,
足立 (Adachi),2024-02-25,12:01～13:00,0.0405,0.0349,0.0375,
足立 (Adachi),2024-02-25,11:01～12:00,0.0395,0.0350,0.0371,
足立 (Adachi),2024-02-25,10:01～11:00,0.0392,0.0332,0.0361,
足立 (Adachi),2024-02-25,09:01～10:00,0.0369,0.0284,0.0330,
足立 (Adachi),2024-02-25,08:01～09:00,0.0322,0.0285,0.0297,
足立 (Adachi),2024-02-25,07:01～08:00,0.0314,0.0276,0.0297,
足立 (Adachi),2024-02-25,06:01～07:00,0.0315,0.0275,0.0297,
足立 (Adachi),2024-02-25,05:01～06:00,0.0320,0.0281,0.0299,
足立 (Adachi),2024-02-25,04:01～05:00,0.0316,0.0277,0.0298,
足立 (Adachi),2024-02-25,03:01～04:00,0.0309,0.0270,0.0293,
足立 (Adachi),2024-02-25,02:01～03:00,0.0311,0.0271,0.0292,
足立 (Adachi),2024-02-25,01:01～02:00,0.0313,0.0271,0.0291,
足立 (Adachi),2024-02-25,00:01～01:00,0.0309,0.0270,0.0293,
足立 (Adachi),2024-02-24,23:01～24:00,0.0311,0.0272,0.0292,
足立 (Adachi),2024-02-24,22:01～23:00,0.0311,0.0276,0.0291,
足立 (Adachi),2024-02-24,21:01～22:00,0.0315,0.0259,0.0292,
足立 (Adachi),2024-02-24,20:01～21:00,0.0311,0.0271,0.0294,
足立 (Adachi),2024-02-24,19:01～20:00,0.0316,0.0272,0.0291,
足立 (Adachi),2024-02-24,18:01～19:00,0.0313,0.0269,0.0287,
足立 (Adachi),2024-02-24,17:01～18:00,0.0310,0.0261,0.0287,
足立 (Adachi),2024-02-24,16:01～17:00,0.0306,0.0256,0.0284,
足立 (Adachi),2024-02-24,15:01～16:00,0.0307,0.0264,0.0288,
足立 (Adachi),2024-02-24,14:01～15:00,0.0308,0.0260,0.0287,
足立 (Adachi),2024-02-24,13:01～14:00,0.0318,0.0259,0.0289,
足立 (Adachi),2024-02-24,12:01～13:00,0.0306,0.0267,0.0284,
足立 (Adachi),2024-02-24,11:01～12:00,0.0312,0.0263,0.0287,
足立 (Adachi),2024-02-24,10:01～11:00,0.0304,0.0270,0.0287,
足立 (Adachi),2024-02-24,09:01～10:00,0.0306,0.0270,0.0285,
足立 (Adachi),2024-02-24,08:01～09:00,0.0308,0.0268,0.0285,
足立 (Adachi),2024-02-24,07:01～08:00,0.0308,0.0265,0.0284,
足立 (Adachi),2024-02-24,06:01～07:00,0.0309,0.0263,0.0286,
足立 (Adachi),2024-02-24,05:01～06:00,0.0303,0.0263,0.0283,
足立 (Adachi),2024-02-24,04:01～05:00,0.0304,0.0258,0.0285,
足立 (Adachi),2024-02-24,03:01～04:00,0.0306,0.0262,0.0285,
足立 (Adachi),2024-02-24,02:01～03:00,0.0308,0.0270,0.0289,
足立 (Adachi),2024-02-24,01:01～02:00,0.0312,0.0267,0.0288,
足立 (Adachi),2024-02-24,00:01～01:00,0.0306,0.0270,0.0290,
足立 (Adachi),2024-02-23,23:01～24:00,0.0317,0.0270,0.0292,
足立 (Adachi),2024-02-23,22:01～23:00,0.0311,0.0273,0.0290,
足立 (Adachi),2024-02-23,21:01～22:00,0.0322,0.0267,0.0290,
足立 (Adachi),2024-02-23,20:01～21:00,0.0315,0.0273,0.0292,
足立 (Adachi),2024-02-23,19:01～20:00,0.0345,0.0287,0.0313,
足立 (Adachi),2024-02-23,18:01～19:00,0.0369,0.0325,0.0344,
足立 (Adachi),2024-02-23,17:01～18:00,0.0368,0.0325,0.0350,
足立 (Adachi),2024-02-23,16:01～17:00,0.0373,0.0315,0.0349,
足立 (Adachi),2024-02-23,15:01～16:00,0.0405,0.0345,0.0377,
足立 (Adachi),2024-02-23,14:01～15:00,0.0408,0.0363,0.0385,
足立 (Adachi),2024-02-23,13:01～14:00,0.0381,0.0328,0.0356,
足立 (Adachi),2024-02-23,12:01～13:00,0.0371,0.0330,0.0350,
足立 (Adachi),2024-02-23,11:01～12:00,0.0381,0.0322,0.0353,
足立 (Adachi),2024-02-23,10:01～11:00,0.0374,0.0325,0.0349,
足立 (Adachi),2024-02-23,09:01～10:00,0.0403,0.0341,0.0375,
足立 (Adachi),2024-02-23,08:01～09:00,0.0401,0.0345,0.0378,
足立 (Adachi),2024-02-23,07:01～08:00,0.0371,0.0330,0.0349,
足立 (Adachi),2024-02-23,06:01～07:00,0.0380,0.0316,0.0354,
足立 (Adachi),2024-02-23,05:01～06:00,0.0404,0.0348,0.0378,
足立 (Adachi),2024-02-23,04:01～05:00,0.0442,0.0370,0.0401,
足立 (Adachi),2024-02-23,03:01～04:00,0.0464,0.0411,0.0440,
足立 (Adachi),2024-02-23,02:01～03:00,0.0466,0.0412,0.0433,
足立 (Adachi),2024-02-23,01:01～02:00,0.0439,0.0360,0.0402,
足立 (Adachi),2024-02-23,00:01～01:00,0.0381,0.0318,0.0343,
足立 (Adachi),2024-02-22,23:01～24:00,0.0372,0.0324,0.0344,
足立 (Adachi),2024-02-22,22:01～23:00,0.0363,0.0280,0.0326,
足立 (Adachi),2024-02-22,21:01～22:00,0.0347,0.0295,0.0322,
足立 (Adachi),2024-02-22,20:01～21:00,0.0377,0.0328,0.0351,
足立 (Adachi),2024-02-22,19:01～20:00,0.0364,0.0311,0.0340,
足立 (Adachi),2024-02-22,18:01～19:00,0.0368,0.0312,0.0341,
足立 (Adachi),2024-02-22,17:01～18:00,0.0377,0.0325,0.0355,
足立 (Adachi),2024-02-22,16:01～17:00,0.0356,0.0302,0.0327,
足立 (Adachi),2024-02-22,15:01～16:00,0.0346,0.0290,0.0314,
足立 (Adachi),2024-02-22,14:01～15:00,0.0384,0.0311,0.0344,
足立 (Adachi),2024-02-22,13:01～14:00,0.0450,0.0363,0.0414,
足立 (Adachi),2024-02-22,12:01～13:00,0.0514,0.0431,0.0477,
足立 (Adachi),2024-02-22,11:01～12:00,0.0516,0.0401,0.0463,
足立 (Adachi),2024-02-22,10:01～11:00,0.0439,0.0370,0.0407,
足立 (Adachi),2024-02-22,09:01～10:00,0.0475,0.0410,0.0442,
足立 (Adachi),2024-02-22,08:01～09:00,0.0460,0.0389,0.0421,
足立 (Adachi),2024-02-22,07:01～08:00,0.0499,0.0405,0.0463,
足立 (Adachi),2024-02-22,06:01～07:00,0.0419,0.0350,0.0386,
足立 (Adachi),2024-02-22,05:01～06:00,0.0348,0.0287,0.0316,
足立 (Adachi),2024-02-22,04:01～05:00,0.0328,0.0282,0.0304,
足立 (Adachi),2024-02-22,03:01～04:00,0.0351,0.0301,0.0325,
足立 (Adachi),2024-02-22,02:01～03:00,0.0353,0.0304,0.0329,
足立 (Adachi),2024-02-22,01:01～02:00,0.0374,0.0309,0.0343,
足立 (Adachi),2024-02-22,00:01～01:00,0.0420,0.0350,0.0384,
足立 (Adachi),2024-02-21,23:01～24:00,0.0412,0.0318,0.0368,
足立 (Adachi),2024-02-21,22:01～23:00,0.0370,0.0302,0.0337,
足立 (Adachi),2024-02-21,21:01～22:00,0.0337,0.0290,0.0311,
足立 (Adachi),2024-02-21,20:01～21:00,0.0320,0.0287,0.0303,
足立 (Adachi),2024-02-21,19:01～20:00,0.0339,0.0298,0.0316,
足立 (Adachi),2024-02-21,18:01～19:00,0.0349,0.0296,0.0321,
足立 (Adachi),2024-02-21,17:01～18:00,0.0441,0.0306,0.0336,
足立 (Adachi),2024-02-21,16:01～17:00,0.0405,0.0334,0.0364,
足立 (Adachi),2024-02-21,15:01～16:00,0.0442,0.0370,0.0411,
足立 (Adachi),2024-02-21,14:01～15:00,0.0393,0.0336,0.0372,
足立 (Adachi),2024-02-21,13:01～14:00,0.0436,0.0357,0.0400,
足立 (Adachi),2024-02-21,12:01～13:00,0.0451,0.0393,0.0426,
足立 (Adachi),2024-02-21,11:01～12:00,0.0452,0.0380,0.0407,
足立 (Adachi),2024-02-21,10:01～11:00,0.0429,0.0381,0.0404,
足立 (Adachi),2024-02-21,09:01～10:00,0.0417,0.0356,0.0386,
足立 (Adachi),2024-02-21,08:01～09:00,0.0401,0.0358,0.0377,
足立 (Adachi),2024-02-21,07:01～08:00,0.0423,0.0356,0.0389,
足立 (Adachi),2024-02-21,06:01～07:00,0.0371,0.0290,0.0329,
足立 (Adachi),2024-02-21,05:01～06:00,0.0315,0.0267,0.0295,
足立 (Adachi),2024-02-21,04:01～05:00,0.0313,0.0272,0.0293,
足立 (Adachi),2024-02-21,03:01～04:00,0.0322,0.0268,0.0298,
足立 (Adachi),2024-02-21,02:01～03:00,0.0318,0.0278,0.0298,
足立 (Adachi),2024-02-21,01:01～02:00,0.0326,0.0282,0.0301,
足立 (Adachi),2024-02-21,00:01～01:00,0.0347,0.0290,0.0315,
足立 (Adachi),2024-02-20,23:01～24:00,0.0336,0.0281,0.0304,
足立 (Adachi),2024-02-20,22:01～23:00,0.0325,0.0281,0.0300,
足立 (Adachi),2024-02-20,21:01～22:00,0.0323,0.0278,0.0300,
足立 (Adachi),2024-02-20,20:01～21:00,0.0332,0.0282,0.0299,
足立 (Adachi),2024-02-20,19:01～20:00,0.0319,0.0282,0.0300,
足立 (Adachi),2024-02-20,18:01～19:00,0.0319,0.0273,0.0297,
足立 (Adachi),2024-02-20,17:01～18:00,0.0317,0.0265,0.0293,
足立 (Adachi),2024-02-20,16:01～17:00,0.0316,0.0273,0.0296,
足立 (Adachi),2024-02-20,15:01～16:00,0.0315,0.0270,0.0295,
足立 (Adachi),2024-02-20,14:01～15:00,0.0323,0.0275,0.0296,
足立 (Adachi),2024-02-20,13:01～14:00,0.0315,0.0266,0.0296,
足立 (Adachi),2024-02-20,12:01～13:00,0.0318,0.0270,0.0291,
足立 (Adachi),2024-02-20,11:01～12:00,0.0320,0.0279,0.0297,
足立 (Adachi),2024-02-20,10:01～11:00,0.0315,0.0281,0.0297,
足立 (Adachi),2024-02-20,09:01～10:00,0.0328,0.0283,0.0299,
足立 (Adachi),2024-02-20,08:01～09:00,0.0318,0.0273,0.0298,
足立 (Adachi),2024-02-20,07:01～08:00,0.0325,0.0271,0.0296,
足立 (Adachi),2024-02-20,06:01～07:00,0.0315,0.0275,0.0294,
足立 (Adachi),2024-02-20,05:01～06:00,0.0322,0.0270,0.0291,
足立 (Adachi),2024-02-20,04:01～05:00,0.0308,0.0266,0.0289,
足立 (Adachi),2024-02-20,03:01～04:00,0.0313,0.0273,0.0291,
足立 (Adachi),2024-02-20,02:01～03:00,0.0308,0.0271,0.0289,
足立 (Adachi),2024-02-20,01:01～02:00,0.0314,0.0270,0.0294,
足立 (Adachi),2024-02-20,00:01～01:00,0.0322,0.0269,0.0295,
足立 (Adachi),2024-02-19,23:01～24:00,0.0321,0.0276,0.0297,
足立 (Adachi),2024-02-19,22:01～23:00,0.0332,0.0290,0.0310,
足立 (Adachi),2024-02-19,21:01～22:00,0.0325,0.0269,0.0300,
足立 (Adachi),2024-02-19,20:01～21:00,0.0322,0.0272,0.0295,
足立 (Adachi),2024-02-19,19:01～20:00,0.0314,0.0269,0.0291,
足立 (Adachi),2024-02-19,18:01～19:00,0.0321,0.0273,0.0294,
足立 (Adachi),2024-02-19,17:01～18:00,0.0326,0.0273,0.0297,
足立 (Adachi),2024-02-19,16:01～17:00,0.0329,0.0276,0.0302,
足立 (Adachi),2024-02-19,15:01～16:00,0.0321,0.0279,0.0301,
足立 (Adachi),2024-02-19,14:01～15:00,0.0332,0.0296,0.0313,
足立 (Adachi),2024-02-19,13:01～14:00,0.0347,0.0292,0.0322,
足立 (Adachi),2024-02-19,12:01～13:00,0.0346,0.0285,0.0316,
足立 (Adachi),2024-02-19,11:01～12:00,0.0327,0.0285,0.0309,
足立 (Adachi),2024-02-19,10:01～11:00,0.0320,0.0263,0.0295,
足立 (Adachi),2024-02-19,09:01～10:00,0.0319,0.0275,0.0295,
足立 (Adachi),2024-02-19,08:01～09:00,0.0323,0.0283,0.0303,
足立 (Adachi),2024-02-19,07:01～08:00,0.0318,0.0274,0.0295,
足立 (Adachi),2024-02-19,06:01～07:00,0.0314,0.0270,0.0293,
足立 (Adachi),2024-02-19,05:01～06:00,0.0320,0.0273,0.0294,
足立 (Adachi),2024-02-19,04:01～05:00,0.0311,0.0270,0.0292,
足立 (Adachi),2024-02-19,03:01～04:00,0.0318,0.0269,0.0291,
足立 (Adachi),2024-02-19,02:01～03:00,0.0308,0.0276,0.0292,
足立 (Adachi),2024-02-19,01:01～02:00,0.0318,0.0266,0.0290,
足立 (Adachi),2024-02-19,00:01～01:00,0.0315,0.0272,0.0291,
